Regional Weather Roundup
Issued by NWS Cleveland, OH

Home | Current Version | Previous Version | Text Only | Print | Product List | Glossary Off
Versions: 1 2 3 4 5 6 7 8 9 10 11 12 13 14 15 16 17 18 19 20 21 22 23 24 25 26 27 28 29 30 31 32 33 34 35 36 37 38 39 40 41 42 43 44 45 46 47 48 49 50

000
ASUS41 KCLE 282100
RWRCLE
OHIO REGIONAL WEATHER ROUNDUP
NATIONAL WEATHER SERVICE WILMINGTON, OH
500 PM EDT THU AUG 28 2014

NOTE: "FAIR" INDICATES FEW OR NO CLOUDS BELOW 12,000 FEET WITH NO
SIGNIFICANT WEATHER AND/OR OBSTRUCTIONS TO VISIBILITY.

OHZ001>008-015>018-024>027-034-035-043-044-282200-
   NORTHWEST OHIO

CITY           SKY/WX    TMP DP  RH WIND       PRES   REMARKS
DEFIANCE       SUNNY     79  58  48 VRB7      30.10S
FINDLAY        PTSUNNY   76  56  49 NE5       30.09F
TOLEDO EXPRESS PTSUNNY   75  56  51 E7        30.10F
TOLEDO METCALF SUNNY     74  56  53 NE8       30.12F
LIMA           MOSUNNY   75  61  61 NE9       30.10F
$$

OHZ009>014-019>023-028>033-038-089-282200-
   NORTHEAST OHIO

CITY           SKY/WX    TMP DP  RH WIND       PRES   REMARKS
CLE-HOPKINS    MOSUNNY   68  52  56 VRB5      30.15F
CLE-LAKEFRONT  MOSUNNY   69  52  54 N9        30.13F
CUY CO. ARPT   MOSUNNY   70  52  52 N12       30.14S
LORAIN-ELYRIA  SUNNY     72  54  53 N6        30.14S
ASHTABULA      SUNNY     67  50  54 E5        30.13F
AKRON-CANTON   MOSUNNY   72  53  51 N7        30.11S
WOOSTER        NOT AVBL
MANSFIELD      MOSUNNY   73  55  53 VRB3      30.13S
YOUNGSTOWN     MOSUNNY   71  50  47 N8        30.11F
$$

OHZ042-051>053-060>062-070>072-077>081-282200-
  SOUTHWEST OHIO

CITY           SKY/WX    TMP DP  RH WIND       PRES   REMARKS
CINC-COVINGTON PTSUNNY   83  63  50 E7        30.05F
CINC-LUNKEN    MOSUNNY   85  63  47 NE7       30.04F
HAMILTON       MOSUNNY   84  65  52 NE8       30.06F
DAYTON         NOT AVBL
WRIGHT-PAT AFB MOSUNNY   80  62  52 VRB7      30.08S
DAYTON GENERAL SUNNY     80  63  55 E7        30.07F
WILMINGTON     SUNNY     78  62  57 VRB6      30.07F
$$

OHZ036-037-039>041-045>050-054>059-063>069-073>076-082>088-282200-
  CENTRAL AND SOUTHEAST OHIO

CITY           SKY/WX    TMP DP  RH WIND       PRES   REMARKS
COLUMBUS       MOSUNNY   80  58  46 E6        30.08F
OSU AIRPORT    SUNNY     78  58  49 N6        30.09F
BOLTON FIELD   MOSUNNY   79  63  57 CALM      30.09S
RICKENBACK AFB NOT AVBL
NEWARK         SUNNY     76  57  51 N5        30.09F
MARION         SUNNY     74  57  55 NE5       30.11S
LANCASTER      SUNNY     79  59  50 VRB6      30.09F
ZANESVILLE     SUNNY     76  55  48 N6        30.10S
NEW PHILLY     SUNNY     74  56  53 N5        30.11S
$$


USA.gov is the U.S. government's official web portal to all federal, state and local government web resources and services.